Kahului, HI

1:02 PM HST on May 23, 2017 (GMT -1000)
Kahului

Weather History for PHOG - July, 2013

Change the Weather History Date:

Sunday, July 7, 2013

  Actual Average Record
Temperature  
Mean Temperature 77 °F 79 °F  
Max Temperature 88 °F 87 °F 91 °F (1969)
Min Temperature 66 °F 71 °F 61 °F (1952)
Degree Days  
Heating Degree Days 0 0  
Month to date heating degree days 0 0  
Since 1 June heating degree days 0 0  
Since 1 July heating degree days 0 0  
Cooling Degree Days 12 14  
Month to date cooling degree days 95 98  
Year to date cooling degree days 1921 1745  
Since 1 June cooling degree days 537 486  
Growing Degree Days 27 (Base 50)    
Moisture  
Dew Point 70 °F    
Average Humidity 76    
Maximum Humidity 93    
Minimum Humidity 59    
Precipitation  
Precipitation 0.01 in 0.01 in 0.45 in (1994)
Month to date precipitation 0.02 0.08  
Year to date precipitation 7.28 9.78  
Snow  
Snow 0.00 in - - ()
Month to date snowfall 0.0  
Since 1 June snowfall 0.0  
Since 1 July snowfall 0.0  
Snow Depth 0.00 in    
Sea Level Pressure  
Sea Level Pressure 29.97 in    
Wind  
Wind Speed 10 mph (NE)    
Max Wind Speed 26 mph    
Max Gust Speed 31 mph    
Visibility 10 miles    
Events      
T = Trace of Precipitation, MM = Missing Value Source: NWS Daily Summary

Daily Weather History Graph

Daily Weather History Graph

Search for Another Location

Airport or City:

Trip Planner

Search our weather history database for the weather conditions in past years. The results will help you decide how hot, cold, wet, or windy it might be!

Date:

Astronomy

Jul. 07, 2013 Rise Set
Actual Time 5:50 AM HST 7:11 PM HST
Civil Twilight 5:25 AM HST 7:35 PM HST
Nautical Twilight 4:56 AM HST 8:04 PM HST
Astronomical Twilight 4:26 AM HST 8:34 PM HST
Moon 5:28 AM HST (7/7) 6:52 PM HST (7/7)
Length of Visible Light 14h 09m
Length of Day
13h 20m
Waning Crescent, 0% of the Moon is Illuminated
Jul 7
Waning Crescent
Jul 7
New
Jul 15
First Quarter
Jul 22
Full
Jul 29
Last Quarter

Hourly Weather History & Observations

Time (HST) Temp. Heat Index Dew Point Humidity Pressure Visibility Wind Dir Wind Speed Gust Speed Precip Events Conditions
12:54 AM 75.0 °F - 70.0 °F 84% 30.02 in 10.0 mi NNE 3.5 mph - N/A   Clear
1:54 AM 75.0 °F - 70.0 °F 84% 30.00 in 10.0 mi North 4.6 mph - N/A   Clear
2:54 AM 69.1 °F - 66.9 °F 93% 29.98 in 10.0 mi Calm Calm - N/A   Clear
3:54 AM 66.9 °F - 64.9 °F 93% 29.98 in 10.0 mi Calm Calm - N/A   Clear
4:54 AM 68.0 °F - 64.9 °F 90% 29.97 in 10.0 mi ENE 4.6 mph - N/A   Clear
5:54 AM 68.0 °F - 64.9 °F 90% 29.98 in 10.0 mi Calm Calm - N/A   Clear
6:54 AM 75.9 °F - 70.0 °F 82% 29.99 in 10.0 mi NNE 4.6 mph - N/A   Clear
7:54 AM 79.0 °F - 72.0 °F 79% 30.00 in 10.0 mi NNE 9.2 mph - N/A   Partly Cloudy
8:54 AM 82.0 °F 86.3 °F 71.1 °F 69% 30.00 in 10.0 mi NNE 10.4 mph - N/A   Clear
9:54 AM 84.0 °F 89.0 °F 71.1 °F 65% 30.00 in 10.0 mi North 15.0 mph - N/A   Partly Cloudy
10:54 AM 84.9 °F 90.1 °F 71.1 °F 63% 29.99 in 10.0 mi North 17.3 mph - N/A   Partly Cloudy
11:54 AM 86.0 °F 92.2 °F 72.0 °F 63% 29.97 in 10.0 mi NNE 19.6 mph - N/A   Partly Cloudy
12:54 PM 86.0 °F 93.0 °F 73.0 °F 65% 29.96 in 10.0 mi NNE 21.9 mph 29.9 mph 0.01 in   Partly Cloudy
1:54 PM 87.1 °F 93.6 °F 72.0 °F 61% 29.95 in 10.0 mi NNE 21.9 mph 28.8 mph N/A   Scattered Clouds
2:54 PM 86.0 °F 93.0 °F 73.0 °F 65% 29.93 in 10.0 mi NNE 25.3 mph - N/A   Scattered Clouds
3:54 PM 82.9 °F 88.8 °F 73.0 °F 72% 29.91 in 10.0 mi North 19.6 mph - N/A   Scattered Clouds
4:54 PM 82.9 °F 87.0 °F 70.0 °F 65% 29.91 in 10.0 mi NE 18.4 mph 26.5 mph N/A   Scattered Clouds
5:54 PM 81.0 °F 84.1 °F 69.1 °F 67% 29.93 in 10.0 mi NE 12.7 mph 19.6 mph N/A   Scattered Clouds
6:54 PM 79.0 °F - 71.1 °F 77% 29.94 in 10.0 mi ENE 13.8 mph - N/A   Scattered Clouds
7:54 PM 78.1 °F - 71.1 °F 79% 29.96 in 10.0 mi NE 11.5 mph - N/A   Partly Cloudy
8:54 PM 75.9 °F - 69.1 °F 79% 29.98 in 10.0 mi ENE 11.5 mph - N/A   Partly Cloudy
9:54 PM 75.9 °F - 66.9 °F 74% 29.99 in 10.0 mi ENE 6.9 mph - N/A   Partly Cloudy
10:54 PM 75.9 °F - 66.0 °F 71% 30.00 in 10.0 mi East 6.9 mph - N/A   Clear
11:54 PM 73.9 °F - 66.9 °F 79% 29.99 in 10.0 mi ENE 3.5 mph - N/A   Clear